Regional Weather Roundup
Issued by NWS Cleveland, OH

Home | Current Version | Previous Version | Graphics & Text | Print | Product List | Glossary On
Versions: 1 2 3 4 5 6 7 8 9 10 11 12 13 14 15 16 17 18 19 20 21 22 23 24 25 26 27 28 29 30 31 32 33 34 35 36 37 38 39 40 41 42 43 44 45 46 47 48 49 50
000
ASUS41 KCLE 250510
RWRCLE
OHIO REGIONAL WEATHER ROUNDUP
NATIONAL WEATHER SERVICE WILMINGTON, OH
1200 AM EST SUN FEB 25 2018

NOTE: "FAIR" INDICATES FEW OR NO CLOUDS BELOW 12,000 FEET WITH NO
SIGNIFICANT WEATHER AND/OR OBSTRUCTIONS TO VISIBILITY.

OHZ001>008-015>018-024>027-034-035-043-044-250600-
   NORTHWEST OHIO

CITY           SKY/WX    TMP DP  RH WIND       PRES   REMARKS
DEFIANCE       CLOUDY    41  39  93 E13       29.63F
FINDLAY        RAIN      47  43  86 SE26G37   29.65F FOG
TOLEDO EXPRESS LGT RAIN  39  39 100 E12       29.69F
TOLEDO EXEC    CLOUDY    39  37  92 SE23G31   29.68F FOG
LIMA           LGT RAIN  48  48 100 SE21G31   29.64F
$$

OHZ009>014-019>023-028>033-038-089-250600-
   NORTHEAST OHIO

CITY           SKY/WX    TMP DP  RH WIND       PRES   REMARKS
CLE-HOPKINS    LGT RAIN  48  46  93 SE10      29.84F
CLE-LAKEFRONT  LGT RAIN  46  43  89 SE10      29.81F
CUY CO. ARPT   NOT AVBL
LORAIN-ELYRIA  LGT RAIN  43  39  86 VRB5      29.80F FOG
ASHTABULA      LGT RAIN  45  43  93 SE9       29.89F
AKRON-CANTON   RAIN      48  44  86 SE12      29.85F FOG
WOOSTER        RAIN      46  46 100 SE9       29.82F FOG
MANSFIELD      LGT RAIN  47  47 100 SE14      29.77F FOG
YOUNGSTOWN     LGT RAIN  46  44  93 SE12      29.87F FOG
$$

OHZ042-051>053-060>062-070>072-077>081-250600-
  SOUTHWEST OHIO

CITY           SKY/WX    TMP DP  RH WIND       PRES   REMARKS
CINC-COVINGTON RAIN      56  55  97 SW10      29.76R FOG
CINC-LUNKEN    HVY RAIN  56  55  97 W13       29.75R FOG
HAMILTON       LGT RAIN  53  52  96 W3        29.75R
DAYTON         RAIN      49  49 100 E6        29.74F FOG
WRIGHT-PAT AFB LGT RAIN  51  50  95 W3        29.73F
DAYTON GENERAL RAIN      56  54  93 S3        29.72F
WILMINGTON     LGT RAIN  57  57 100 S16G22    29.70F
$$

OHZ036-037-039>041-045>050-054>059-063>069-073>076-082>088-250600-
  CENTRAL AND SOUTHEAST OHIO

CITY           SKY/WX    TMP DP  RH WIND       PRES   REMARKS
COLUMBUS       RAIN      52  51  97 SE9       29.76F FOG
OSU AIRPORT    RAIN      50  50 100 SE5       29.77S FOG
BOLTON FIELD   RAIN      49  49 100 SE8       29.76F
RICKENBACK AFB HVY RAIN  50  50 100 SE8       29.76F
NEWARK         HVY RAIN  50  49  96 E5        29.79F FOG
MARION         RAIN      48  46  93 SE12      29.77F FOG
LANCASTER      RAIN      51  50  96 SE12      29.79F FOG
ZANESVILLE     LGT RAIN  50  49  96 SE6       29.82S FOG
NEW PHILLY     HVY RAIN  49  48  97 SE7       29.84F FOG
$$




USA.gov is the U.S. government's official web portal to all federal, state and local government web resources and services.